Wind_Speed
3 2 2 2 2 2 2 2 2 1 1 2 2 1 1 1 2 2 3 3 3 4 4 5 5 5 5 5 5 5 6 6 6 7 7 6 6 6 7 7 8 9 9
2 2 1 1 2 2 1 1 1 1 1 1 1 1 1 2 2 3 3 3 4 4 5 6 6 6 5 6 6 6 6 6 7 7 7 7 8 7 8 9 9 10 10
1 1 1 1 1 1 0 0 1 1 2 1 1 2 2 3 3 3 4 5 5 6 6 7 7 7 6 7 7 7 7 7 7 8 8 8 8 9 9 10 10 10 10
1 1 1 1 0 0 1 1 2 2 2 2 2 3 3 4 4 5 5 6 6 7 7 8 8 9 8 8 8 9 9 9 9 9 8 9 9 9 8 8 9 9 9
1 1 0 1 0 0 1 2 2 3 3 3 3 3 4 4 5 6 7 7 7 8 9 9 10 10 10 10 10 10 10 10 10 10 10 9 9 8 8 8 8 8 9
1 1 1 1 1 1 2 3 3 4 4 4 4 5 6 6 7 8 8 9 9 9 10 10 11 11 11 11 11 11 11 11 11 11 10 10 9 9 9 9 9 9 9
2 1 2 3 3 3 3 3 4 5 5 5 6 6 7 8 9 9 10 10 10 10 10 11 12 12 12 12 12 12 12 12 12 11 11 11 10 10 10 10 9 10 10
3 2 3 4 4 3 4 4 5 5 6 7 7 8 9 10 10 10 10 10 11 11 11 11 12 12 13 12 12 12 13 12 12 12 12 12 11 11 11 11 11 11 11
3 3 3 4 4 4 5 5 6 7 7 8 8 9 10 11 11 11 12 12 13 13 14 14 13 13 13 14 13 13 12 12 13 13 13 12 12 11 11 11 11 11 12
4 4 4 5 6 6 6 7 8 9 9 9 10 11 11 12 12 13 13 14 15 15 16 16 16 15 15 14 14 14 14 13 13 13 13 13 13 13 13 12 11 12 12
5 6 6 7 7 7 8 9 9 10 10 11 11 12 12 13 14 15 15 15 16 17 17 17 17 17 16 16 16 15 15 14 14 14 14 14 14 14 14 13 13 13 12
6 7 8 8 9 9 9 10 10 11 12 12 13 13 13 14 15 16 16 16 17 18 18 19 19 18 17 17 17 17 16 15 15 14 15 15 15 15 14 14 14 13 13
7 8 9 9 10 10 11 11 12 12 13 13 14 14 14 15 16 17 18 18 19 19 19 20 20 20 19 18 18 17 17 16 16 16 16 16 16 15 15 15 15 14 14
9 10 11 11 12 12 13 13 13 14 14 15 15 15 16 17 17 18 18 19 19 20 20 21 21 21 20 19 18 18 18 17 17 17 17 17 17 16 17 17 16 16 15
11 12 13 13 13 14 14 14 14 15 16 16 16 17 18 18 19 20 20 20 21 21 21 21 21 20 20 19 19 19 19 18 18 18 18 18 18 17 18 18 18 18 17
13 13 14 15 15 15 15 15 16 16 17 17 18 19 20 20 21 21 21 22 22 23 22 22 21 22 21 21 21 20 20 19 19 19 18 19 19 19 19 19 20 20 20
15 15 15 16 16 17 17 17 17 18 18 19 20 21 21 22 23 23 23 23 23 23 23 23 22 22 22 22 21 21 21 21 21 20 20 20 20 20 20 21 21 21 21
16 16 17 17 18 18 19 19 19 20 20 20 21 22 22 23 23 24 24 24 23 22 22 22 23 23 22 23 23 22 22 23 22 22 21 21 21 21 22 22 22 23 23
18 18 19 19 20 21 21 21 21 22 22 22 22 23 23 24 24 24 24 24 23 22 22 22 23 24 23 23 24 24 23 23 23 23 23 23 23 23 24 23 24 24 24
20 21 21 22 22 22 22 22 23 23 23 23 24 24 24 24 25 25 25 24 23 23 23 23 23 24 24 24 25 25 25 25 25 25 25 25 25 25 25 25 26 26 26
23 23 23 23 24 24 24 24 24 24 24 25 25 25 25 25 26 25 25 24 23 23 23 23 24 24 24 25 25 26 26 27 26 26 26 27 27 27 27 27 28 28 28
24 25 25 25 25 24 25 25 26 26 25 25 25 25 25 25 26 25 25 24 23 24 24 24 24 25 25 26 26 27 27 28 28 28 27 28 28 28 29 29 30 30 30
26 25 26 26 25 25 26 26 26 27 26 26 26 26 25 25 25 25 24 24 24 24 25 25 25 26 27 27 27 28 28 28 29 29 29 29 30 30 30 31 31 31 31
27 27 27 26 25 25 26 26 27 27 26 26 27 26 26 26 25 24 24 25 25 25 26 26 26 27 27 28 29 29 29 29 30 30 30 30 31 31 31 31 31 31 31
28 28 27 26 26 26 26 26 27 27 27 27 27 27 26 26 26 25 25 26 26 27 27 27 28 28 28 29 29 30 30 31 31 31 31 31 31 31 31 31 30 30 30
28 28 28 27 26 26 26 26 26 27 27 27 27 27 27 26 26 26 26 27 27 28 28 29 29 29 29 29 29 29 30 30 31 31 31 31 32 32 32 31 31 31 31
Wind_Direction
118 125 140 140 128 108 117 104 81 65 30 26 32 24 271 308 318 317 314 312 309 305 299 297 298 292 285 282 284 284 282 277 277 275 273 277 278 273 269 264 258 258 254
116 114 120 143 131 107 126 120 25 12 3 353 356 340 313 308 311 324 322 317 315 309 298 293 295 294 292 286 284 285 283 281 277 274 275 277 279 275 272 267 261 258 255
135 116 109 138 148 129 102 261 333 327 314 327 330 331 318 311 316 316 313 313 311 307 301 296 293 290 290 289 284 284 284 285 281 281 279 282 282 280 276 271 260 252 253
151 144 113 147 138 71 341 330 311 312 294 289 303 306 306 305 304 304 306 305 305 303 300 296 292 287 286 288 284 283 282 283 283 283 284 285 286 284 284 276 264 255 252
180 187 169 151 143 331 317 325 326 321 315 304 300 301 304 300 299 301 301 299 298 299 296 295 292 287 285 288 288 284 281 281 281 282 286 287 285 285 285 279 267 259 255
209 204 222 255 294 298 307 315 317 316 318 314 308 305 305 303 302 300 296 294 292 293 294 295 294 290 286 286 290 288 284 281 281 281 283 285 283 281 282 276 268 264 260
233 263 296 293 291 291 302 316 319 313 311 309 302 301 303 305 307 306 299 295 295 294 294 294 295 293 289 286 286 286 285 282 281 281 282 282 279 279 277 274 267 264 262
247 266 301 307 299 301 304 313 318 316 313 310 305 301 301 303 304 304 302 299 296 294 295 295 294 293 290 287 283 284 283 280 280 278 278 279 278 275 273 273 267 265 266
259 274 287 304 309 314 313 309 312 310 310 308 304 303 302 300 301 299 298 298 297 295 292 292 291 292 293 289 283 282 280 279 279 276 276 277 276 274 275 272 268 264 263
278 285 295 299 301 307 308 309 307 305 305 304 304 304 303 301 297 295 295 296 297 297 296 293 288 287 290 289 282 280 277 277 276 275 275 275 277 278 276 272 268 267 262
292 288 291 300 303 305 308 307 308 307 306 306 307 308 306 303 301 298 295 293 294 294 296 296 291 285 286 284 280 276 274 275 275 273 274 274 275 274 274 272 271 268 263
291 293 292 294 298 298 300 303 305 307 306 306 305 304 304 303 300 299 298 297 296 295 293 293 290 286 284 284 281 274 271 273 274 275 274 274 274 273 272 271 272 271 267
292 294 294 293 293 292 295 299 302 304 304 304 304 302 302 303 303 300 299 297 296 295 293 290 289 286 283 282 281 276 270 268 270 272 273 273 273 272 272 270 270 269 267
293 295 297 293 292 293 294 296 299 299 299 300 301 300 300 300 301 301 300 298 296 295 293 290 289 284 282 279 278 276 273 267 267 270 272 272 271 272 271 269 268 266 266
290 292 293 295 294 293 293 293 295 296 297 298 298 298 298 298 299 300 299 298 296 295 292 290 288 282 279 277 276 274 274 270 269 270 272 271 270 271 272 270 267 265 265
289 291 293 294 294 295 294 292 292 294 296 297 296 296 296 297 297 297 298 297 295 292 289 286 285 282 278 276 276 274 273 270 269 270 273 273 271 270 270 270 268 266 266
290 292 293 294 294 294 293 292 291 292 294 295 296 296 295 295 295 296 296 296 295 292 289 286 283 282 277 277 277 276 274 272 271 268 271 273 273 271 269 268 268 266 266
288 290 290 291 292 292 292 291 291 292 293 294 295 296 295 294 295 294 294 294 294 292 290 286 283 281 279 276 275 276 274 272 274 271 270 272 271 271 270 269 268 266 265
287 287 288 289 289 290 290 291 290 290 291 292 293 294 294 293 294 293 292 292 292 292 289 287 284 281 279 276 274 275 275 273 273 274 271 272 272 272 272 271 271 269 267
286 287 287 287 288 289 288 289 290 289 289 291 291 292 292 292 293 293 291 291 291 291 289 286 284 282 280 278 275 275 274 274 273 274 272 271 271 271 272 272 272 271 269
285 286 287 288 288 288 287 286 288 288 288 289 291 291 292 291 292 292 291 292 293 292 291 288 286 283 280 279 277 276 276 276 275 275 274 273 273 271 272 272 273 274 272
284 286 287 288 289 288 288 288 287 287 287 288 289 290 292 292 292 293 292 292 292 291 290 290 287 286 282 280 278 277 277 277 276 275 274 274 273 272 272 273 273 275 274
284 284 285 286 288 288 289 289 289 287 287 288 289 290 290 290 291 292 293 292 292 291 290 289 288 288 285 283 281 279 278 278 278 278 276 275 275 274 273 274 274 274 273
285 285 285 286 287 288 289 288 288 288 287 288 288 290 290 289 290 291 292 293 292 292 292 290 290 289 288 287 284 281 279 277 277 277 276 276 275 275 275 274 275 275 273
287 286 286 286 286 288 288 289 289 290 290 289 288 287 289 289 289 291 292 292 292 292 292 291 290 290 288 287 285 282 280 279 279 278 277 278 277 277 276 276 274 274 273
288 287 288 287 287 288 289 290 292 292 291 290 289 287 287 289 289 289 290 291 292 292 291 290 289 289 288 287 286 284 281 280 279 278 278 279 279 279 279 276 275 274 272
Height
5893 5893 5893 5892 5892 5891 5891 5891 5890 5890 5889 5888 5887 5887 5887 5888 5888 5887 5887 5887 5886 5886 5886 5885 5884 5884 5883 5883 5882 5882 5881 5881 5880 5880 5879 5879 5878 5878 5877 5877 5877 5877 5877
5893 5893 5893 5893 5892 5892 5892 5891 5891 5890 5890 5889 5888 5888 5888 5887 5887 5887 5887 5886 5886 5885 5885 5884 5884 5883 5882 5881 5881 5881 5880 5879 5879 5878 5878 5877 5877 5876 5876 5875 5875 5875 5875
5893 5893 5893 5893 5892 5892 5892 5891 5891 5891 5890 5889 5889 5888 5888 5887 5887 5887 5886 5886 5885 5884 5884 5883 5882 5882 5881 5880 5880 5879 5879 5878 5877 5877 5876 5876 5875 5874 5873 5872 5871 5872 5873
5893 5893 5893 5892 5892 5892 5892 5891 5891 5890 5890 5889 5889 5889 5888 5887 5887 5886 5886 5885 5884 5883 5882 5882 5881 5880 5879 5879 5878 5877 5877 5876 5876 5875 5875 5874 5873 5871 5870 5868 5868 5870 5871
5893 5893 5892 5892 5892 5892 5891 5891 5891 5890 5889 5889 5888 5888 5888 5887 5886 5885 5885 5884 5883 5882 5881 5880 5879 5878 5877 5876 5876 5875 5875 5874 5874 5873 5873 5872 5871 5870 5868 5867 5867 5868 5869
5892 5892 5892 5892 5891 5891 5891 5890 5890 5889 5889 5888 5888 5887 5886 5886 5885 5884 5883 5882 5881 5880 5879 5878 5877 5876 5875 5874 5873 5873 5872 5872 5871 5871 5870 5870 5869 5868 5867 5867 5867 5867 5867
5892 5892 5891 5891 5890 5890 5890 5890 5889 5889 5888 5887 5887 5886 5885 5884 5883 5882 5881 5880 5879 5877 5876 5875 5874 5873 5872 5871 5870 5870 5869 5869 5868 5868 5868 5867 5866 5866 5865 5865 5865 5865 5865
5891 5891 5890 5890 5889 5889 5889 5889 5888 5887 5887 5886 5885 5884 5884 5883 5881 5880 5879 5878 5876 5875 5874 5872 5871 5870 5869 5868 5867 5867 5866 5866 5865 5865 5864 5864 5863 5863 5862 5862 5862 5862 5862
5890 5890 5890 5889 5888 5888 5888 5887 5887 5886 5885 5884 5883 5883 5882 5881 5879 5878 5876 5875 5873 5872 5871 5870 5869 5868 5866 5865 5864 5864 5863 5863 5862 5862 5862 5861 5861 5860 5859 5859 5859 5858 5858
5889 5889 5889 5888 5887 5887 5886 5886 5885 5884 5883 5882 5881 5880 5879 5878 5876 5875 5874 5872 5871 5869 5868 5866 5866 5865 5863 5862 5861 5861 5860 5860 5859 5859 5859 5858 5857 5857 5856 5856 5855 5855 5854
5888 5888 5887 5886 5886 5885 5884 5884 5883 5882 5881 5880 5879 5877 5876 5874 5873 5872 5870 5869 5868 5866 5864 5863 5862 5861 5860 5859 5858 5857 5856 5856 5856 5855 5855 5855 5854 5854 5853 5853 5852 5852 5851
5887 5886 5885 5885 5884 5883 5882 5881 5880 5879 5878 5877 5876 5874 5873 5871 5870 5868 5866 5865 5864 5862 5860 5859 5858 5857 5856 5855 5854 5853 5852 5852 5852 5851 5851 5851 5851 5850 5850 5850 5849 5849 5849
5885 5884 5883 5882 5881 5881 5880 5879 5877 5876 5875 5874 5872 5871 5869 5868 5866 5864 5863 5861 5859 5858 5856 5855 5854 5853 5851 5850 5850 5849 5848 5848 5848 5847 5847 5847 5847 5847 5846 5846 5846 5846 5846
5883 5882 5881 5880 5879 5878 5877 5875 5874 5873 5872 5870 5869 5867 5866 5864 5862 5860 5858 5857 5855 5853 5852 5850 5849 5847 5846 5845 5845 5844 5844 5844 5844 5843 5843 5843 5842 5842 5842 5842 5842 5842 5842
5880 5879 5878 5877 5876 5874 5873 5872 5871 5869 5868 5866 5865 5863 5862 5860 5858 5856 5854 5852 5851 5849 5847 5845 5844 5842 5841 5840 5840 5839 5839 5839 5839 5839 5838 5838 5838 5837 5837 5837 5837 5838 5838
5877 5876 5875 5873 5872 5871 5869 5868 5867 5865 5864 5862 5860 5859 5857 5855 5853 5851 5849 5847 5845 5843 5841 5840 5838 5837 5836 5835 5834 5834 5834 5834 5834 5833 5833 5833 5833 5832 5832 5832 5832 5832 5833
5874 5872 5871 5869 5868 5867 5865 5864 5862 5861 5859 5857 5855 5853 5852 5850 5848 5846 5844 5841 5839 5837 5835 5834 5832 5831 5830 5829 5828 5828 5828 5828 5828 5828 5827 5827 5827 5827 5826 5826 5826 5827 5827
5869 5868 5867 5865 5864 5862 5861 5859 5858 5856 5854 5852 5850 5848 5846 5844 5842 5840 5838 5836 5833 5831 5829 5828 5826 5825 5824 5823 5823 5822 5822 5822 5821 5821 5821 5821 5821 5821 5820 5820 5820 5820 5821
5865 5863 5862 5860 5859 5857 5856 5854 5852 5851 5849 5847 5844 5842 5840 5838 5836 5834 5831 5829 5827 5825 5823 5822 5820 5819 5818 5817 5817 5816 5815 5815 5815 5814 5815 5815 5814 5814 5814 5814 5813 5813 5814
5860 5858 5857 5855 5853 5851 5850 5848 5846 5844 5842 5840 5838 5836 5833 5831 5829 5827 5825 5822 5820 5819 5817 5815 5814 5813 5812 5810 5810 5809 5809 5808 5808 5807 5807 5807 5807 5807 5807 5806 5806 5806 5806
5854 5852 5851 5849 5847 5845 5843 5842 5840 5838 5836 5834 5832 5830 5827 5825 5823 5820 5818 5816 5814 5812 5810 5808 5807 5806 5805 5804 5803 5802 5801 5801 5800 5800 5799 5799 5799 5799 5798 5798 5798 5797 5797
5848 5846 5844 5842 5840 5839 5837 5835 5833 5831 5829 5827 5825 5823 5820 5818 5816 5814 5811 5809 5807 5805 5803 5802 5800 5799 5798 5797 5795 5794 5793 5793 5793 5793 5791 5791 5790 5790 5789 5790 5789 5789 5788
5841 5839 5837 5835 5833 5832 5830 5828 5826 5824 5822 5820 5817 5815 5813 5811 5809 5807 5805 5803 5801 5799 5797 5795 5793 5792 5790 5789 5788 5787 5786 5785 5784 5784 5783 5782 5781 5780 5780 5779 5779 5779 5778
5834 5832 5830 5828 5826 5824 5823 5821 5819 5816 5814 5812 5810 5808 5806 5804 5801 5799 5797 5796 5794 5792 5790 5788 5786 5785 5783 5781 5780 5778 5777 5777 5776 5775 5774 5773 5772 5771 5770 5769 5769 5768 5768
5827 5825 5823 5821 5819 5817 5815 5813 5811 5808 5806 5804 5802 5800 5798 5796 5795 5792 5790 5788 5786 5784 5782 5780 5778 5776 5774 5773 5771 5769 5768 5767 5767 5766 5764 5763 5763 5761 5760 5760 5759 5759 5758
5819 5818 5816 5814 5812 5810 5807 5805 5803 5800 5798 5796 5794 5792 5790 5789 5787 5785 5783 5781 5779 5777 5775 5773 5770 5768 5766 5764 5762 5761 5759 5758 5757 5756 5755 5754 5752 5751 5751 5750 5749 5748 5747